Weather History for Klawock, AK

Change the Weather History Date:

Friday, January 11, 2013

  Actual Average Record
Temperature  
Mean Temperature 34 °F -  
Max Temperature 36 °F 36 °F 42 °F (2002)
Min Temperature 33 °F 28 °F 10 °F (2005)
Degree Days  
Heating Degree Days 30    
Moisture  
Dew Point 32 °F    
Average Humidity 91    
Maximum Humidity 96    
Minimum Humidity 87    
Precipitation  
Precipitation 0.03 in - - ()
Sea Level Pressure  
Sea Level Pressure 30.22 in    
Wind  
Wind Speed 3 mph (NE)    
Max Wind Speed 9 mph    
Max Gust Speed -    
Visibility 10 miles    
Events      
Averages and records for this station are not official NWS values.
T = Trace of Precipitation, MM = Missing Value Source: NWS Daily Summary

Daily Weather History Graph

Daily Weather History Graph

Search for Another Location

Airport:

Trip Planner

Search our weather history database for the weather conditions in past years. The results will help you decide how hot, cold, wet, or windy it might be!

Date:

Astronomy

Jan. 11, 2013 Rise Set
Actual Time 8:14 AM AKST 3:46 PM AKST
Civil Twilight 7:30 AM AKST 4:31 PM AKST
Nautical Twilight 6:43 AM AKST 5:18 PM AKST
Astronomical Twilight 5:58 AM AKST 6:02 PM AKST
Moon 7:43 AM AKST (1/11) 4:25 PM AKST (1/11)
Length of Visible Light 9h 01m
Length of Day
7h 32m
New Moon, 0% of the Moon is Illuminated
Jan 11
New Moon
Jan 18
First Quarter
Jan 26
Full
Feb 3
Last Quarter
Feb 9
New

Hourly Weather History & Observations

Time (AKST) Temp. Windchill Dew Point Humidity Pressure Visibility Wind Dir Wind Speed Gust Speed Precip Events Conditions
12:53 AM 33.1 °F - 30.9 °F 92% 30.27 in 10.0 mi Calm Calm - N/A   Overcast
1:53 AM 33.1 °F - 32.0 °F 96% 30.27 in 10.0 mi Calm Calm - N/A   Overcast
3:53 AM 33.1 °F - 32.0 °F 96% 30.26 in 10.0 mi Calm Calm - N/A   Overcast
4:53 AM 33.1 °F - 32.0 °F 96% 30.24 in 10.0 mi Calm Calm - N/A   Overcast
5:53 AM 33.1 °F 30.0 °F 30.9 °F 92% 30.23 in 10.0 mi NNE 3.5 mph - N/A   Overcast
6:53 AM 33.1 °F 27.7 °F 30.9 °F 92% 30.22 in 10.0 mi NNE 5.8 mph - N/A   Overcast
7:53 AM 33.1 °F 30.0 °F 30.9 °F 92% 30.21 in 10.0 mi NE 3.5 mph - N/A   Mostly Cloudy
8:53 AM 33.1 °F - 30.9 °F 92% 30.22 in 10.0 mi Calm Calm - N/A   Mostly Cloudy
9:53 AM 33.1 °F 26.9 °F 30.9 °F 92% 30.21 in 10.0 mi NNE 6.9 mph - N/A   Overcast
10:53 AM 34.0 °F 28.0 °F 32.0 °F 92% 30.20 in 10.0 mi NE 6.9 mph - 0.01 in   Overcast
11:53 AM 35.1 °F 32.2 °F 32.0 °F 89% 30.19 in 10.0 mi NE 3.5 mph - 0.01 in   Overcast
12:49 PM 35.6 °F 30.7 °F 33.8 °F 93% 30.18 in 10.0 mi NE 5.8 mph - N/A   Overcast
12:53 PM 35.1 °F 28.6 °F 32.0 °F 89% 30.18 in 10.0 mi NE 8.1 mph - N/A   Overcast
1:53 PM 36.0 °F - 33.1 °F 89% 30.19 in 10.0 mi Calm Calm - N/A   Overcast
2:53 PM 35.1 °F 29.3 °F 33.1 °F 92% 30.20 in 10.0 mi NNE 6.9 mph - 0.00 in   Overcast
3:53 PM 35.1 °F 29.3 °F 33.1 °F 92% 30.20 in 10.0 mi NNE 6.9 mph - 0.01 in   Overcast
4:53 PM 34.0 °F 29.8 °F 32.0 °F 92% 30.20 in 10.0 mi NE 4.6 mph - 0.00 in   Overcast
5:53 PM 35.1 °F 31.0 °F 32.0 °F 89% 30.20 in 10.0 mi NNE 4.6 mph - N/A   Overcast
6:53 PM 35.1 °F 30.1 °F 32.0 °F 89% 30.21 in 10.0 mi Variable 5.8 mph - N/A   Overcast
7:53 PM 34.0 °F 29.8 °F 30.9 °F 89% 30.22 in 10.0 mi NNE 4.6 mph - N/A   Overcast
8:53 PM 34.0 °F 28.8 °F 30.9 °F 89% 30.22 in 10.0 mi NE 5.8 mph - N/A   Overcast
9:20 PM 33.8 °F 29.6 °F 30.2 °F 87% 30.23 in 10.0 mi NE 4.6 mph - N/A   Overcast
9:53 PM 34.0 °F 28.0 °F 30.9 °F 89% 30.24 in 10.0 mi NE 6.9 mph - N/A   Overcast
10:53 PM 34.0 °F - 30.9 °F 89% 30.25 in 10.0 mi Calm Calm - N/A   Overcast
11:33 PM 33.8 °F 27.7 °F 30.2 °F 87% 30.26 in 10.0 mi NE 6.9 mph - N/A   Overcast
11:53 PM 34.0 °F 26.6 °F 30.9 °F 89% 30.26 in 10.0 mi NNE 9.2 mph - N/A   Overcast